Location: Newark
(43.0000°N, 1.6781°W)
Time: 20:40:57
(UTC+00:00)

Vanguard 2 Rocket - All Passes

Search period start: 17 April 2021 00:00
Search period end: 27 April 2021 00:00
Orbit: 553 x 3326 km, 32.9° (Epoch: 17 April)

Date Brightness Start Highest point End Pass type
(mag) Time Alt. Az. Time Alt. Az. Time Alt. Az.
17 Apr - 11:01:11 10° SSE 11:11:23 18° SE 11:22:29 10° E daylight
17 Apr - 13:09:16 10° SSW 13:26:17 42° SSE 13:43:23 10° E daylight
17 Apr - 15:23:35 10° WSW 15:43:14 59° S 15:59:13 10° E daylight
17 Apr - 17:41:11 10° W 18:00:03 56° SSW 18:12:45 10° ESE daylight
17 Apr - 20:00:48 10° W 20:14:26 32° SW 20:23:31 10° SSE visible
18 Apr - 10:10:13 10° SE 10:11:00 10° SE 10:11:46 10° ESE daylight
18 Apr - 12:09:47 10° SSW 12:24:52 34° SE 12:41:21 10° E daylight
18 Apr - 14:22:21 10° SW 14:41:14 55° SSE 14:58:31 10° E daylight
18 Apr - 16:38:49 10° W 16:58:32 60° S 17:13:03 10° ESE daylight
18 Apr - 18:57:36 10° W 19:14:09 42° SSW 19:25:07 10° SE visible
18 Apr - 21:20:12 10° W 21:26:43 14° SW 21:32:00 10° SSW visible
19 Apr - 11:11:17 10° S 11:23:52 26° SE 11:38:21 10° E daylight
19 Apr - 13:21:45 10° SW 13:39:18 50° SSE 13:57:18 10° E daylight
19 Apr - 15:36:53 10° WSW 15:56:38 61° S 16:12:53 10° ESE daylight
19 Apr - 17:54:47 10° W 18:13:18 51° SSW 18:26:05 10° SE daylight
19 Apr - 20:15:12 10° W 20:27:07 24° SW 20:35:41 10° S visible
20 Apr - 10:14:19 10° SSE 10:23:21 17° SE 10:33:44 10° E daylight
20 Apr - 12:21:52 10° SSW 12:37:39 42° SSE 12:55:31 10° E daylight
20 Apr - 14:35:29 10° WSW 14:54:32 60° S 15:12:14 10° E daylight
20 Apr - 16:52:20 10° W 17:11:53 57° SSW 17:26:32 10° ESE daylight
20 Apr - 19:11:32 10° W 19:27:00 34° SW 19:37:49 10° SSE visible
21 Apr - 11:22:46 10° SSW 11:36:27 34° SE 11:53:01 10° E daylight
21 Apr - 13:34:41 10° SW 13:52:27 56° SSE 14:11:05 10° E daylight
21 Apr - 15:50:20 10° W 16:10:02 61° S 16:26:27 10° ESE daylight
21 Apr - 18:08:29 10° W 18:26:20 44° SSW 18:39:07 10° SE daylight
21 Apr - 20:30:35 10° W 20:39:34 17° SW 20:46:44 10° SSW visible
22 Apr - 10:24:36 10° S 10:35:45 25° SE 10:49:34 10° E daylight
22 Apr - 12:34:31 10° SW 12:50:36 50° SSE 13:09:23 10° E daylight
22 Apr - 14:48:51 10° WSW 15:07:55 62° S 15:25:51 10° ESE daylight
22 Apr - 17:05:57 10° W 17:25:05 52° SSW 17:39:46 10° SE daylight
22 Apr - 19:25:54 10° W 19:39:38 26° SW 19:49:53 10° S visible
23 Apr - 09:28:06 10° SSE 09:35:34 16° SE 09:44:27 10° E daylight
23 Apr - 11:35:01 10° SSW 11:49:11 42° SSE 12:07:08 10° E daylight
23 Apr - 13:47:55 10° WSW 14:05:44 60° S 14:24:44 10° E daylight
23 Apr - 16:03:55 10° W 16:23:21 58° SSW 16:39:51 10° ESE daylight
23 Apr - 18:22:25 10° W 18:39:09 36° SW 18:51:43 10° SSE daylight
23 Apr - 20:50:08 10° WSW 20:51:54 10° SW 20:53:36 10° SW visible
24 Apr - 10:36:15 10° SSW 10:48:17 33° SE 11:04:12 10° E daylight
24 Apr - 12:47:33 10° SW 13:03:44 56° SSE 13:23:06 10° E daylight
24 Apr - 15:02:22 10° W 15:21:17 61° S 15:39:21 10° ESE daylight
24 Apr - 17:19:42 10° W 17:38:07 45° SSW 17:52:42 10° SE daylight
24 Apr - 19:41:09 10° W 19:52:04 19° SW 20:00:56 10° S visible
25 Apr - 09:38:25 10° S 09:47:57 23° SE 10:00:24 10° E daylight
25 Apr - 11:47:48 10° SW 12:02:07 49° SSE 12:20:57 10° E daylight
25 Apr - 14:01:22 10° WSW 14:19:06 62° S 14:38:18 10° ESE daylight
25 Apr - 16:17:35 10° W 16:36:32 53° SSW 16:53:00 10° SE daylight
25 Apr - 18:36:48 10° W 18:51:46 28° SW 19:03:40 10° S daylight
26 Apr - 08:42:30 10° SSE 08:48:07 14° SE 08:54:47 10° ESE daylight
26 Apr - 10:48:38 10° SSW 11:01:01 40° SSE 11:18:16 10° E daylight
26 Apr - 13:00:53 10° WSW 13:17:01 60° S 13:36:42 10° E daylight
26 Apr - 15:16:00 10° W 15:34:36 58° SSW 15:52:41 10° ESE daylight
26 Apr - 17:33:41 10° W 17:50:55 37° SW 18:05:10 10° SSE daylight
26 Apr - 19:59:01 10° WSW 20:04:23 12° SW 20:09:17 10° SW visible
